LA5HL Weather Reports


time (UTC)temp
F
wind
direction
speed
knots
gust
knots
rain 1hr
in
rain 24hr
in
rain mn
in
humidity
%
barometer
mb
20260506230004 33 26 0.0 0.0 0.00 0.00 0.00 82 1011.8
20260506225505 33 26 0.0 0.0 0.00 0.00 0.00 82 1011.8
20260506225004 33 26 0.0 0.0 0.00 0.00 0.00 82 1011.7
20260506224504 34 26 0.0 0.0 0.00 0.00 0.00 82 1011.6
20260506224004 34 26 0.0 0.0 0.00 0.00 0.00 81 1011.6
20260506223504 34 26 0.0 0.0 0.00 0.00 0.00 81 1011.7
20260506223004 33 26 0.0 0.0 0.00 0.00 0.00 81 1011.6
20260506222505 33 26 0.0 0.0 0.00 0.00 0.00 81 1011.6
20260506222005 33 26 0.0 0.0 0.00 0.00 0.00 81 1011.6
20260506221504 33 26 0.0 0.0 0.00 0.00 0.00 81 1011.6
20260506221004 33 26 0.0 0.0 0.00 0.00 0.00 81 1011.6
20260506220504 33 26 0.0 0.0 0.00 0.00 0.00 81 1011.6
20260506220004 33 26 0.0 0.0 0.00 0.00 0.00 81 1011.6
20260506215504 33 26 0.0 0.0 0.00 0.00 0.00 81 1011.6
20260506215006 33 26 0.0 0.0 0.00 0.00 0.00 81 1011.5
20260506204004 35 26 0.0 0.0 0.00 0.00 0.00 78 1010.9
20260506203504 35 26 0.0 0.0 0.00 0.00 0.00 78 1010.9
20260506203004 35 26 0.0 0.0 0.00 0.00 0.00 78 1010.9
20260506202505 35 26 0.0 0.0 0.00 0.00 0.00 78 1010.9
20260506202004 35 26 0.0 0.0 0.00 0.00 0.00 78 1010.7
20260506201504 35 26 0.0 0.0 0.00 0.00 0.00 77 1010.8
20260506201004 35 26 0.0 0.0 0.00 0.00 0.00 77 1010.7
20260506200504 36 26 0.0 0.0 0.00 0.00 0.00 77 1010.7
20260506200004 36 26 0.0 0.0 0.00 0.00 0.00 77 1010.7
20260506195504 36 26 0.0 0.0 0.00 0.00 0.00 77 1010.7
20260506195004 36 26 0.0 0.0 0.00 0.00 0.00 77 1010.7
20260506194504 37 26 0.0 0.0 0.00 0.00 0.00 77 1010.6
20260506194005 37 26 0.0 0.0 0.00 0.00 0.00 76 1010.6
20260506193504 37 26 0.0 0.0 0.00 0.00 0.00 76 1010.5
20260506193005 37 26 0.0 0.0 0.00 0.00 0.00 76 1010.6
20260506192504 37 26 0.0 0.0 0.00 0.00 0.00 76 1010.5
20260506192004 37 26 0.0 0.0 0.00 0.00 0.00 75 1010.5
20260506191505 38 26 0.0 0.0 0.00 0.00 0.00 75 1010.4
20260506191004 38 26 0.0 0.0 0.00 0.00 0.00 75 1010.4
20260506190504 38 26 0.0 0.0 0.00 0.00 0.00 75 1010.4
20260506190005 39 26 0.0 0.0 0.00 0.00 0.00 76 1010.4
20260506185504 39 26 0.0 0.0 0.00 0.00 0.00 76 1010.4
20260506185005 39 26 0.0 0.0 0.00 0.00 0.00 76 1010.3
20260506184504 39 26 0.0 0.0 0.00 0.00 0.00 76 1010.3
20260506184004 40 26 0.0 0.0 0.00 0.00 0.00 76 1010.2
20260506183505 40 26 0.0 0.0 0.00 0.00 0.00 76 1010.1
20260506162504 37 26 0.0 0.0 0.00 0.00 0.00 80 1009.7
20260506162005 37 26 0.0 0.0 0.00 0.00 0.00 80 1009.7
20260506161504 37 26 0.0 0.0 0.00 0.00 0.00 80 1009.5
20260506161005 37 26 0.0 0.0 0.00 0.00 0.00 79 1009.4
20260506160504 37 26 0.0 0.0 0.00 0.00 0.00 79 1009.5
20260506160005 38 26 0.0 0.0 0.00 0.00 0.00 79 1009.4
20260506155504 38 26 0.0 0.0 0.00 0.00 0.00 78 1009.4
20260506155004 38 26 0.0 0.0 0.00 0.00 0.00 77 1009.4
20260506154505 39 26 0.0 0.0 0.00 0.00 0.00 76 1009.4
20260506154004 39 26 0.0 0.0 0.00 0.00 0.00 74 1009.3
20260506153504 40 26 0.0 0.0 0.00 0.00 0.00 74 1009.4
20260506153004 40 26 0.0 0.0 0.00 0.00 0.00 74 1009.4
20260506152504 40 26 0.0 0.0 0.00 0.00 0.00 74 1009.2
20260506152005 40 26 0.0 0.0 0.00 0.00 0.00 75 1009.2
20260506151504 40 26 0.0 0.0 0.00 0.00 0.00 75 1009.3
20260506151004 40 26 0.0 0.0 0.00 0.00 0.00 75 1009.1
20260506150504 39 26 0.0 0.0 0.00 0.00 0.00 75 1009.2
20260506150005 39 26 0.0 0.0 0.00 0.00 0.00 76 1009.2
20260506145504 39 26 0.0 0.0 0.00 0.00 0.00 76 1009.2
20260506145004 39 26 0.0 0.0 0.00 0.00 0.00 76 1009.2
20260506144505 39 26 0.0 0.0 0.00 0.00 0.00 76 1009.0
20260506144004 39 26 0.0 0.0 0.00 0.00 0.00 76 1009.0
20260506143504 39 26 0.0 0.0 0.00 0.00 0.00 76 1009.0
20260506143004 39 26 0.0 0.0 0.00 0.00 0.00 76 1008.9
20260506142505 39 26 0.0 0.0 0.00 0.00 0.00 75 1009.0
20260506142004 39 26 0.0 0.0 0.00 0.00 0.00 75 1008.9
20260506141504 39 26 0.0 0.0 0.00 0.00 0.00 75 1008.9
20260506141004 39 26 0.0 0.0 0.00 0.00 0.00 74 1009.0
20260506140504 39 26 0.0 0.0 0.00 0.00 0.00 74 1008.9
20260506140005 39 26 0.0 0.0 0.00 0.00 0.00 73 1008.9
20260506135504 40 26 0.0 0.0 0.00 0.00 0.00 73 1008.9
20260506135004 41 26 0.0 0.0 0.00 0.00 0.00 73 1008.7
20260506134504 41 26 0.0 0.0 0.00 0.00 0.00 73 1008.7
20260506134004 41 26 0.0 0.0 0.00 0.00 0.00 74 1008.6
20260506133504 42 26 0.0 0.0 0.00 0.00 0.00 75 1008.6
20260506133004 42 26 0.0 0.0 0.00 0.00 0.00 75 1008.6
20260506132504 42 26 0.0 0.0 0.00 0.00 0.00 76 1008.6
20260506121504 38 26 0.0 0.0 0.00 0.00 0.00 74 1008.3
20260506121004 38 26 0.0 0.0 0.00 0.00 0.00 74 1008.2
20260506120505 38 26 0.0 0.0 0.00 0.00 0.00 74 1008.1
20260506120005 38 26 0.0 0.0 0.00 0.00 0.00 73 1008.1
20260506115504 38 26 0.0 0.0 0.00 0.00 0.00 73 1008.1
20260506115004 38 26 0.0 0.0 0.00 0.00 0.00 72 1008.0
20260506114504 38 26 0.0 0.0 0.00 0.00 0.00 71 1007.9
20260506114004 38 26 0.0 0.0 0.00 0.00 0.00 71 1007.9
20260506113504 39 26 0.0 0.0 0.00 0.00 0.00 71 1007.9
20260506113004 39 26 0.0 0.0 0.00 0.00 0.00 70 1007.8
20260506112504 40 26 0.0 0.0 0.00 0.00 0.00 70 1007.7
20260506112004 42 26 0.0 0.0 0.00 0.00 0.00 68 1007.6
20260506111504 43 26 0.0 0.0 0.00 0.00 0.00 66 1007.6
20260506111004 43 26 0.0 0.0 0.00 0.00 0.00 67 1007.7
20260506110504 43 26 0.0 0.0 0.00 0.00 0.00 68 1007.5
20260506110004 43 26 0.0 0.0 0.00 0.00 0.00 69 1007.5
20260506105504 42 26 0.0 0.0 0.00 0.00 0.00 69 1007.5
20260506105004 41 26 0.0 0.0 0.00 0.00 0.00 70 1007.4
20260506104504 41 26 0.0 0.0 0.00 0.00 0.00 70 1007.4
20260506104005 41 26 0.0 0.0 0.00 0.00 0.00 70 1007.4
20260506103504 40 26 0.0 0.0 0.00 0.00 0.00 71 1007.3
20260506103004 40 26 0.0 0.0 0.00 0.00 0.00 71 1007.3
20260506102504 39 26 0.0 0.0 0.00 0.00 0.00 70 1007.3
20260506102004 39 26 0.0 0.0 0.00 0.00 0.00 70 1007.3
20260506080504 38 26 0.0 0.0 0.00 0.00 0.00 70 1006.3
20260506073504 38 26 0.0 0.0 0.00 0.00 0.00 71 1006.1
20260506073004 38 26 0.0 0.0 0.00 0.00 0.00 72 1006.0
20260506072504 37 26 0.0 0.0 0.00 0.00 0.00 72 1006.0
20260506072004 37 26 0.0 0.0 0.00 0.00 0.00 72 1005.9
20260506071504 37 26 0.0 0.0 0.00 0.00 0.00 72 1005.9
20260506071004 37 26 0.0 0.0 0.00 0.00 0.00 72 1005.9
20260506070504 37 26 0.0 0.0 0.00 0.00 0.00 72 1006.0
20260506062505 38 26 0.0 0.0 0.00 0.00 0.00 71 1005.6
20260506062004 38 26 0.0 0.0 0.00 0.00 0.00 72 1005.6
20260506061504 38 26 0.0 0.0 0.00 0.00 0.00 72 1005.5
20260506061004 38 26 0.0 0.0 0.00 0.00 0.00 72 1005.5
20260506060504 38 26 0.0 0.0 0.00 0.00 0.00 73 1005.5
20260506051004 35 26 0.0 0.0 0.00 0.00 0.00 76 1005.2
20260506050504 35 26 0.0 0.0 0.00 0.00 0.00 76 1005.3
20260506045004 34 26 0.0 0.0 0.00 0.00 0.00 77 1005.1
20260506044504 34 26 0.0 0.0 0.00 0.00 0.00 77 1005.2
20260506044004 34 26 0.0 0.0 0.00 0.00 0.00 77 1005.1
20260506043504 34 26 0.0 0.0 0.00 0.00 0.00 77 1005.2
20260506043004 34 26 0.0 0.0 0.00 0.00 0.00 77 1005.1
20260506042504 33 26 0.0 0.0 0.00 0.00 0.00 77 1005.1
20260506042004 33 26 0.0 0.0 0.00 0.00 0.00 77 1005.1
20260506041504 33 26 0.0 0.0 0.00 0.00 0.00 77 1005.0
20260506041004 33 26 0.0 0.0 0.00 0.00 0.00 77 1005.0
20260506040504 33 26 0.0 0.0 0.00 0.00 0.00 77 1005.0
20260506040004 33 26 0.0 0.0 0.00 0.00 0.00 77 1005.0
20260506035504 32 26 0.0 0.0 0.00 0.00 0.00 77 1005.0
20260506035004 32 26 0.0 0.0 0.00 0.00 0.00 77 1004.9
20260506034504 32 26 0.0 0.0 0.00 0.00 0.00 78 1004.8
20260506034004 32 26 0.0 0.0 0.00 0.00 0.00 78 1004.7
20260506033504 32 26 0.0 0.0 0.00 0.00 0.00 78 1004.7
20260506033005 32 26 0.0 0.0 0.00 0.00 0.00 78 1004.8
20260506032504 32 26 0.0 0.0 0.00 0.00 0.00 78 1004.7
20260506032004 32 26 0.0 0.0 0.00 0.00 0.00 78 1004.7
20260506031504 32 26 0.0 0.0 0.00 0.00 0.00 78 1004.6
20260506031004 32 26 0.0 0.0 0.00 0.00 0.00 78 1004.5
20260506030504 32 26 0.0 0.0 0.00 0.00 0.00 78 1004.5